Flag for U.S.A. Weather past 2 weeks in Colorado Springs, Colorado, U.S.A.

20 °F

Light snow. Ice fog.

Feels Like: 15 °F
Forecast: 15 / 31 °F
Wind: 3 mph from East

Location: City Of Colorado Springs Municipal Airport

Current Time: Nov 29, 2015 at 9:55:33 AM

Latest Report: Nov 29, 2015 at 8:54 AM

Visibility: 2 mi

Pressure: 30.25 "Hg (23.92 "Hg at 1831m altitude)

Humidity: 85%

Dew point: 16 °F

Location of Colorado SpringsLocation

Historic Weather in Colorado Springs — Graph


Colorado Springs temperature yesterday

Maximum temperature yesterday: 20 °F (at 10:54 AM)
Minimum temperature yesterday: 16 °F (at 12:54 AM)
Average temperature yesterday: 18 °F

Past Weeks' High & Low Weather Summary

High64 °F (Nov 14, 11:54 AM)96% (Nov 16, 6:54 PM)30.61 "Hg (Nov 16, 6:54 PM)
Low7 °F (Nov 27, 6:54 AM)8% (Nov 15, 1:54 PM)29.31 "Hg (Nov 16, 12:54 PM)
Average35 °F53%30.01 "Hg
* Reported Nov 14 8:54 AM — Nov 29 8:54 AM, Colorado Springs, Weather by CustomWeather, © 2015

Note: Actual official high and low records may vary slightly from our data, if they occured in-between our weather recording intervals... More about our weather records


Colorado Springs weather history for previous 24 hours

Time TempWeatherWind HumidityBarometerVisibility
8:54 AM
Sun, Nov 29
20 °FLight snow. Ice fog.3 mph85%30.25 "Hg2 mi
7:54 AM19 °FLight snow. Ice fog.No wind85%30.26 "Hg1 mi
6:54 AM19 °FLight snow. Ice fog.No wind85%30.26 "Hg3 mi
5:54 AM19 °FIce fog.3 mph85%30.23 "Hg4 mi
4:54 AM19 °FIce fog.7 mph85%30.22 "Hg1 mi
3:54 AM19 °FIce fog.7 mph88%30.22 "Hg1 mi
2:54 AM19 °FIce fog.No wind88%30.24 "Hg1 mi
1:54 AM19 °FIce fog.6 mph92%30.25 "Hg0 mi
12:54 AM19 °FIce fog.8 mph92%30.27 "Hg0 mi
10:54 PM
Sat, Nov 28
19 °FIce fog.9 mph92%30.31 "Hg1 mi
9:54 PM19 °FIce fog.7 mph92%30.33 "Hg4 mi
8:54 PM20 °FLow clouds.3 mph85%30.34 "Hg7 mi
7:54 PM20 °FLow clouds.No wind89%30.34 "Hg7 mi
6:54 PM19 °FLow clouds.7 mph88%30.34 "Hg7 mi
5:54 PM20 °FLow clouds.6 mph85%30.32 "Hg7 mi
4:54 PM20 °FOvercast.5 mph85%30.32 "Hg8 mi
3:54 PM20 °FOvercast.No wind82%30.31 "Hg8 mi
2:54 PM20 °FMore clouds than sun.No wind85%30.30 "Hg7 mi
1:54 PM20 °FLight snow. Ice fog.No wind82%30.30 "Hg6 mi
12:54 PM20 °FMostly cloudy.6 mph89%30.31 "Hg7 mi
11:54 AM20 °FMostly cloudy.7 mph89%30.32 "Hg8 mi
10:54 AM20 °FLight snow. Partly sunny.9 mph92%30.36 "Hg8 mi
9:54 AM19 °FLight snow. Low clouds.8 mph88%30.37 "Hg8 mi
9:04 AM18 °FIce fog.9 mph88%30.14 "Hg6 mi
Weather by CustomWeather, © 2015

See weather overviewHow to use our weather pages